Regional Weather Roundup
Issued by NWS

Home | Current Version | Previous Version | Text Only | Print | Product List | Glossary On
Versions: 1 2 3 4 5 6 7 8 9 10 11 12 13 14 15 16 17 18 19 20 21 22 23 24 25 26 27 28 29 30 31 32 33 34 35 36 37 38 39 40 41 42 43 44 45 46 47 48 49 50
000
ASUS44 KOUN 241110
RWROK

WEATHER ROUNDUP FOR OKLAHOMA
NATIONAL WEATHER SERVICE NORMAN OK
500 AM CST SAT FEB 24 2018

NOTE: "FAIR" INDICATES FEW OR NO CLOUDS BELOW 12,000 FEET WITH NO
      SIGNIFICANT WEATHER AND/OR OBSTRUCTIONS TO VISIBILITY.

OKZ001>007-009>012-014-015-017-241200-
NORTHWEST OKLAHOMA AND THE PANHANDLE

CITY           SKY/WX    TMP DP  RH WIND       PRES   REMARKS
GAGE           CLOUDY    32  31  96 N7        29.90F FOG     WCI  26
GUYMON         CLOUDY    30  30 100 E6        29.88S FOG     WCI  24
ENID/WOODRING  CLOUDY    36  36 100 NW5       29.94R FOG     WCI  32
$$

OKZ016-021>023-033>039-044-045-241200-
SOUTHWEST OKLAHOMA

CITY           SKY/WX    TMP DP  RH WIND       PRES   REMARKS
LAWTON/REGL    CLOUDY    39  39 100 NE8       29.91F FOG     WCI  33
LAWTON/FT SILL CLOUDY   N/A N/A N/A N8        29.90F FOG
FREDERICK      FOG       39  38  96 NE8       29.86F VSB 1   WCI  33
CLINTON        FOG       34  34 100 N7        29.89F VSB 1   WCI  28
HOBART         CLOUDY    37  36  96 NE6       29.91F FOG     WCI  32
ALTUS AFB      MIX PCPN N/A N/A N/A NE8       29.91F
$$

OKZ018>020-024>031-241200-
CENTRAL OKLAHOMA

CITY           SKY/WX    TMP DP  RH WIND       PRES   REMARKS
OKLAHOMA CITY  FOG       38  38 100 N6        29.91F VSB 1/2 WCI  33
OKC/WILEY POST CLOUDY    38  38 100 N6        29.92S FOG     WCI  33
OKC/TINKER AFB DRIZZLE   38  38 100 CALM      29.91S FOG
STILLWATER     CLOUDY    37  37 100 CALM      29.95R FOG
GUTHRIE        FOG       37  37 100 N3        29.93S VSB 1/2
$$

OKZ008-013-054>072-241200-
NORTHEAST OKLAHOMA

CITY           SKY/WX    TMP DP  RH WIND       PRES   REMARKS
TULSA          FOG       40  40 100 NW5       29.93F VSB 1/2
TULSA/JONES    FOG       41  40  96 N3        29.94S VSB 3/4
PONCA CITY     CLOUDY    36  34  92 E5        29.93R WCI  32
BARTLESVILLE   CLOUDY    38  38 100 N6        29.94F FOG     WCI  33
MUSKOGEE       CLOUDY    44  44 100 CALM      29.96S
$$

OKZ032-040>043-046>053-073>077-241200-
SOUTH CENTRAL/SOUTHEAST OKLAHOMA

CITY           SKY/WX    TMP DP  RH WIND       PRES   REMARKS
ARDMORE/DWNTWN CLOUDY    43  41  93 CALM      29.92F FOG
MCALESTER      CLOUDY    46  46 100 CALM      29.94F FOG
$$





USA.gov is the U.S. government's official web portal to all federal, state and local government web resources and services.